Weather History for Monroe, NC

Change the Weather History Date:

Thursday, January 31, 2013

  Actual Average (KCLT) Record (KCLT)
Temperature  
Mean Temperature 44 °F 41 °F  
Max Temperature 50 °F 52 °F 77 °F (1975)
Min Temperature 37 °F 30 °F 4 °F (1966)
Degree Days  
Heating Degree Days 22 24  
Month to date heating degree days 768  
Since 1 July heating degree days 2107  
Cooling Degree Days 0 0  
Month to date cooling degree days 0  
Year to date cooling degree days 0  
Moisture  
Dew Point 30 °F    
Average Humidity 58    
Maximum Humidity 87    
Minimum Humidity 36    
Precipitation  
Precipitation 0.00 in 0.11 in 1.75 in (1985)
Month to date precipitation 3.41  
Year to date precipitation 3.41  
Snow  
Snow 0.00 in 0.10 in 0.90 in (1948)
Month to date snowfall 2.1  
Since 1 July snowfall 2.5  
Snow Depth -    
Sea Level Pressure  
Sea Level Pressure 29.88 in    
Wind  
Wind Speed 17 mph (WSW)    
Max Wind Speed 26 mph    
Max Gust Speed 38 mph    
Visibility 10 miles    
Events Rain    
T = Trace of Precipitation, MM = Missing Value Source: NWS Daily Summary

Daily Weather History Graph

Daily Weather History Graph

Search for Another Location

Airport:

Trip Planner

Search our weather history database for the weather conditions in past years. The results will help you decide how hot, cold, wet, or windy it might be!

Date:

Astronomy

Jan. 31, 2013 Rise Set
Actual Time 7:21 AM EST 5:50 PM EST
Civil Twilight 6:55 AM EST 6:17 PM EST
Nautical Twilight 6:24 AM EST 6:47 PM EST
Astronomical Twilight 5:55 AM EST 7:17 PM EST
Moon 10:36 PM EST (1/31) 9:33 AM EST (1/31)
Length of Visible Light 11h 21m
Length of Day
10h 28m
Waning Gibbous, 80% of the Moon is Illuminated
Jan 31
Waning Gibbous
Feb 3
Last Quarter
Feb 10
New
Feb 17
First Quarter
Feb 25
Full

Hourly Weather History & Observations

Time (EST) Temp. Windchill Dew Point Humidity Pressure Visibility Wind Dir Wind Speed Gust Speed Precip Events Conditions
12:53 AM 50.0 °F - 46.0 °F 86% 29.60 in 10.0 mi SW 20.7 mph 28.8 mph 0.00 in Rain Light Rain
1:05 AM 50.0 °F - 46.4 °F 87% 29.58 in 10.0 mi SW 21.9 mph 34.5 mph 0.00 in   Overcast
1:53 AM 50.0 °F - 45.0 °F 83% 29.60 in 10.0 mi WSW 21.9 mph 35.7 mph 0.00 in   Overcast
2:53 AM 48.9 °F - 43.0 °F 80% 29.62 in 10.0 mi WSW 20.7 mph 33.4 mph N/A   Mostly Cloudy
3:48 AM 46.4 °F 38.5 °F 39.2 °F 76% 29.64 in 10.0 mi WSW 21.9 mph 38.0 mph N/A   Scattered Clouds
3:53 AM 46.9 °F - 39.0 °F 74% 29.66 in 10.0 mi WSW 26.5 mph 32.2 mph N/A   Partly Cloudy
4:53 AM 45.0 °F 37.6 °F 36.0 °F 71% 29.72 in 10.0 mi WSW 17.3 mph 31.1 mph N/A   Clear
5:53 AM 43.0 °F 35.7 °F 35.1 °F 74% 29.76 in 10.0 mi West 15.0 mph 29.9 mph N/A   Mostly Cloudy
6:53 AM 42.1 °F 36.1 °F 33.1 °F 70% 29.81 in 10.0 mi West 10.4 mph - N/A   Clear
7:53 AM 41.0 °F 34.3 °F 24.1 °F 51% 29.87 in 10.0 mi West 11.5 mph 23.0 mph N/A   Clear
8:53 AM 41.0 °F 33.1 °F 25.0 °F 53% 29.91 in 10.0 mi West 15.0 mph 26.5 mph N/A   Clear
9:53 AM 43.0 °F 36.4 °F 25.0 °F 49% 29.94 in 10.0 mi West 12.7 mph 25.3 mph N/A   Clear
10:53 AM 44.1 °F 37.4 °F 27.0 °F 51% 29.97 in 10.0 mi West 13.8 mph - N/A   Clear
11:53 AM 46.0 °F 38.3 °F 28.0 °F 50% 29.96 in 10.0 mi WSW 20.7 mph 28.8 mph N/A   Partly Cloudy
12:53 PM 46.9 °F - 23.0 °F 39% 29.95 in 10.0 mi WNW 13.8 mph 26.5 mph N/A   Clear
1:53 PM 48.9 °F - 23.0 °F 36% 29.95 in 10.0 mi West 16.1 mph 25.3 mph N/A   Clear
2:53 PM 48.9 °F - 25.0 °F 39% 29.96 in 10.0 mi West 16.1 mph 23.0 mph N/A   Clear
3:53 PM 48.9 °F - 23.0 °F 36% 29.99 in 10.0 mi West 11.5 mph 26.5 mph N/A   Partly Cloudy
4:53 PM 48.9 °F - 23.0 °F 36% 30.00 in 10.0 mi West 16.1 mph 25.3 mph N/A   Clear
5:53 PM 46.9 °F - 23.0 °F 39% 30.02 in 10.0 mi WSW 8.1 mph - N/A   Clear
7:53 PM 41.0 °F 38.0 °F 21.0 °F 45% 30.07 in 10.0 mi WSW 4.6 mph - N/A   Clear
8:53 PM 37.9 °F 34.4 °F 23.0 °F 55% 30.08 in 10.0 mi SW 4.6 mph - N/A   Clear
9:53 PM 37.9 °F 30.9 °F 25.0 °F 60% 30.08 in 10.0 mi SW 10.4 mph - N/A   Clear
10:53 PM 39.9 °F 31.1 °F 24.1 °F 53% 30.09 in 10.0 mi SW 17.3 mph - N/A   Clear
11:53 PM 39.0 °F 31.0 °F 24.1 °F 55% 30.09 in 10.0 mi SW 13.8 mph - N/A   Clear